Mankato, MN

7:21 AM CDT on June 27, 2017 (GMT -0500)
Mankato Regional

Weather History for KMKT - November, 2013

Change the Weather History Date:

Tuesday, November 12, 2013

  Actual Average Record
Temperature  
Mean Temperature 16 °F -  
Max Temperature 24 °F 41 °F 66 °F (2001)
Min Temperature 8 °F 27 °F 8 °F (2013)
Degree Days  
Heating Degree Days 49    
Moisture  
Dew Point 8 °F    
Average Humidity 68    
Maximum Humidity 85    
Minimum Humidity 50    
Precipitation  
Precipitation 0.00 in - - ()
Sea Level Pressure  
Sea Level Pressure 30.68 in    
Wind  
Wind Speed 7 mph (WSW)    
Max Wind Speed 12 mph    
Max Gust Speed -    
Visibility 10 miles    
Events      
Averages and records for this station are not official NWS values.
T = Trace of Precipitation, MM = Missing Value Source: NWS Daily Summary

Daily Weather History Graph

Daily Weather History Graph

Search for Another Location

Airport or City:

Trip Planner

Search our weather history database for the weather conditions in past years. The results will help you decide how hot, cold, wet, or windy it might be!

Date:

Astronomy

Nov. 12, 2013 Rise Set
Actual Time 7:07 AM CST 4:51 PM CST
Civil Twilight 6:36 AM CST 5:22 PM CST
Nautical Twilight 6:01 AM CST 5:57 PM CST
Astronomical Twilight 5:27 AM CST 6:31 PM CST
Moon 2:15 PM CST (11/12) 1:47 AM CST (11/12)
Length of Visible Light 10h 46m
Length of Day
9h 43m
Waxing Gibbous, 76% of the Moon is Illuminated
Nov 12
Waxing Gibbous
Nov 17
Full
Nov 25
Last Quarter
Dec 2
New
Dec 9
First Quarter

Hourly Weather History & Observations

Time (CST) Temp. Windchill Dew Point Humidity Pressure Visibility Wind Dir Wind Speed Gust Speed Precip Events Conditions
12:15 AM 12.2 °F 0.7 °F 6.8 °F 79% 30.73 in 10.0 mi NW 8.1 mph - N/A   Clear
12:35 AM 12.2 °F 0.7 °F 6.8 °F 79% 30.73 in 10.0 mi NNW 8.1 mph - N/A   Clear
12:55 AM 12.2 °F 0.7 °F 6.8 °F 79% 30.74 in 10.0 mi NNW 8.1 mph - N/A   Clear
1:15 AM 12.2 °F -0.2 °F 6.8 °F 79% 30.74 in 10.0 mi NNW 9.2 mph - N/A   Clear
1:35 AM 12.2 °F -0.2 °F 6.8 °F 79% 30.74 in 10.0 mi NW 9.2 mph - N/A   Clear
1:55 AM 12.2 °F 0.7 °F 5.0 °F 73% 30.73 in 10.0 mi NNW 8.1 mph - N/A   Clear
2:15 AM 12.2 °F 1.7 °F 5.0 °F 73% 30.74 in 10.0 mi NW 6.9 mph - N/A   Clear
2:35 AM 12.2 °F 1.7 °F 5.0 °F 73% 30.74 in 10.0 mi NW 6.9 mph - N/A   Clear
2:55 AM 10.4 °F -0.4 °F 3.2 °F 73% 30.75 in 10.0 mi NNW 6.9 mph - N/A   Clear
3:15 AM 12.2 °F 1.7 °F 5.0 °F 73% 30.75 in 10.0 mi NNW 6.9 mph - N/A   Clear
3:35 AM 10.4 °F 4.0 °F 3.2 °F 73% 30.75 in 10.0 mi NW 3.5 mph - N/A   Clear
3:55 AM 10.4 °F 2.2 °F 3.2 °F 73% 30.75 in 10.0 mi NW 4.6 mph - N/A   Clear
4:15 AM 10.4 °F -0.4 °F 3.2 °F 73% 30.75 in 10.0 mi NW 6.9 mph - N/A   Clear
4:35 AM 10.4 °F -0.4 °F 5.0 °F 79% 30.77 in 10.0 mi NW 6.9 mph - N/A   Clear
4:55 AM 10.4 °F -1.5 °F 5.0 °F 79% 30.77 in 10.0 mi NW 8.1 mph - N/A   Clear
5:15 AM 10.4 °F 0.8 °F 3.2 °F 73% 30.77 in 10.0 mi WNW 5.8 mph - N/A   Clear
5:35 AM 10.4 °F 2.2 °F 3.2 °F 73% 30.77 in 10.0 mi NW 4.6 mph - N/A   Clear
5:55 AM 8.6 °F 0.1 °F 3.2 °F 79% 30.77 in 10.0 mi WNW 4.6 mph - N/A   Clear
6:15 AM 8.6 °F 0.1 °F 3.2 °F 79% 30.78 in 10.0 mi WNW 4.6 mph - N/A   Clear
6:35 AM 8.6 °F - 1.4 °F 73% 30.78 in 10.0 mi Calm Calm - N/A   Clear
6:55 AM 8.6 °F 2.0 °F 3.2 °F 79% 30.77 in 10.0 mi West 3.5 mph - N/A   Clear
7:15 AM 8.6 °F -1.3 °F 3.2 °F 79% 30.78 in 10.0 mi West 5.8 mph - N/A   Clear
7:35 AM 8.6 °F -1.3 °F 3.2 °F 79% 30.78 in 10.0 mi West 5.8 mph - N/A   Clear
7:55 AM 8.6 °F -1.3 °F 3.2 °F 79% 30.78 in 10.0 mi West 5.8 mph - N/A   Clear
8:15 AM 10.4 °F 0.8 °F 6.8 °F 85% 30.78 in 10.0 mi West 5.8 mph - N/A   Clear
8:35 AM 10.4 °F -0.4 °F 6.8 °F 85% 30.78 in 10.0 mi West 6.9 mph - N/A   Clear
8:55 AM 12.2 °F 1.7 °F 6.8 °F 79% 30.79 in 10.0 mi West 6.9 mph - N/A   Clear
9:15 AM 12.2 °F 0.7 °F 8.6 °F 85% 30.79 in 10.0 mi West 8.1 mph - N/A   Clear
9:35 AM 15.8 °F 6.1 °F 8.6 °F 73% 30.79 in 10.0 mi West 6.9 mph - N/A   Clear
9:55 AM 15.8 °F 6.1 °F 8.6 °F 73% 30.79 in 10.0 mi West 6.9 mph - N/A   Clear
10:15 AM 15.8 °F 5.1 °F 8.6 °F 73% 30.78 in 10.0 mi West 8.1 mph - N/A   Clear
10:35 AM 17.6 °F 7.3 °F 8.6 °F 68% 30.77 in 10.0 mi West 8.1 mph - N/A   Clear
10:55 AM 17.6 °F 6.4 °F 8.6 °F 68% 30.77 in 10.0 mi West 9.2 mph - N/A   Clear
11:15 AM 17.6 °F 9.3 °F 6.8 °F 63% 30.76 in 10.0 mi West 5.8 mph - N/A   Clear
11:35 AM 19.4 °F 8.6 °F 8.6 °F 63% 30.75 in 10.0 mi West 9.2 mph - N/A   Clear
11:55 AM 21.2 °F 10.1 °F 10.4 °F 63% 30.74 in 10.0 mi WSW 10.4 mph - N/A   Clear
12:15 PM 21.2 °F 9.5 °F 8.6 °F 58% 30.73 in 10.0 mi WSW 11.5 mph - N/A   Clear
12:35 PM 21.2 °F 9.5 °F 10.4 °F 63% 30.73 in 10.0 mi WNW 11.5 mph - N/A   Clear
12:55 PM 21.2 °F 10.9 °F 10.4 °F 63% 30.72 in 10.0 mi West 9.2 mph - N/A   Clear
1:15 PM 23.0 °F 14.7 °F 8.6 °F 54% 30.71 in 10.0 mi WSW 6.9 mph - N/A   Clear
1:35 PM 23.0 °F 14.7 °F 8.6 °F 54% 30.70 in 10.0 mi West 6.9 mph - N/A   Clear
1:55 PM 23.0 °F 13.9 °F 8.6 °F 54% 30.68 in 10.0 mi SW 8.1 mph - N/A   Clear
2:15 PM 24.8 °F 16.1 °F 8.6 °F 50% 30.67 in 10.0 mi SW 8.1 mph - N/A   Clear
2:35 PM 24.8 °F 16.9 °F 8.6 °F 50% 30.66 in 10.0 mi SW 6.9 mph - N/A   Clear
2:55 PM 24.8 °F 15.3 °F 8.6 °F 50% 30.66 in 10.0 mi WSW 9.2 mph - N/A   Clear
3:15 PM 24.8 °F 15.3 °F 10.4 °F 54% 30.65 in 10.0 mi SSW 9.2 mph - N/A   Clear
3:35 PM 24.8 °F 14.6 °F 10.4 °F 54% 30.64 in 10.0 mi SSW 10.4 mph - N/A   Clear
3:55 PM 24.8 °F 14.6 °F 10.4 °F 54% 30.64 in 10.0 mi SW 10.4 mph - N/A   Clear
4:15 PM 24.8 °F 14.6 °F 10.4 °F 54% 30.63 in 10.0 mi SSW 10.4 mph - N/A   Clear
4:35 PM 24.8 °F 15.3 °F 10.4 °F 54% 30.63 in 10.0 mi SSW 9.2 mph - N/A   Clear
4:55 PM 24.8 °F 16.1 °F 10.4 °F 54% 30.63 in 10.0 mi SW 8.1 mph - N/A   Clear
5:15 PM 23.0 °F 14.7 °F 10.4 °F 59% 30.63 in 10.0 mi SSW 6.9 mph - N/A   Clear
5:35 PM 21.2 °F 13.6 °F 10.4 °F 63% 30.62 in 10.0 mi SSW 5.8 mph - N/A   Clear
5:55 PM 21.2 °F 12.6 °F 10.4 °F 63% 30.61 in 10.0 mi South 6.9 mph - N/A   Clear
6:15 PM 21.2 °F 12.6 °F 10.4 °F 63% 30.60 in 10.0 mi South 6.9 mph - N/A   Clear
6:35 PM 21.2 °F 11.7 °F 10.4 °F 63% 30.59 in 10.0 mi SSW 8.1 mph - N/A   Clear
6:55 PM 21.2 °F 11.7 °F 10.4 °F 63% 30.58 in 10.0 mi South 8.1 mph - N/A   Clear
7:15 PM 21.2 °F 13.6 °F 10.4 °F 63% 30.58 in 10.0 mi South 5.8 mph - N/A   Clear
7:35 PM 19.4 °F 10.4 °F 10.4 °F 68% 30.57 in 10.0 mi SSW 6.9 mph - N/A   Clear
7:55 PM 19.4 °F 10.4 °F 10.4 °F 68% 30.56 in 10.0 mi South 6.9 mph - N/A   Clear
8:15 PM 19.4 °F 10.4 °F 10.4 °F 68% 30.54 in 10.0 mi South 6.9 mph - N/A   Clear
8:35 PM 21.2 °F 11.7 °F 10.4 °F 63% 30.53 in 10.0 mi SSW 8.1 mph - N/A   Clear
8:55 PM 21.2 °F 11.7 °F 12.2 °F 68% 30.52 in 10.0 mi SSW 8.1 mph - N/A   Clear
9:15 PM 21.2 °F 11.7 °F 12.2 °F 68% 30.51 in 10.0 mi SSW 8.1 mph - N/A   Clear
9:35 PM 21.2 °F 11.7 °F 10.4 °F 63% 30.51 in 10.0 mi SSW 8.1 mph - N/A   Clear
9:55 PM 21.2 °F 10.9 °F 12.2 °F 68% 30.50 in 10.0 mi SSW 9.2 mph - N/A   Clear
10:15 PM 21.2 °F 10.9 °F 12.2 °F 68% 30.49 in 10.0 mi South 9.2 mph - N/A   Clear
10:35 PM 21.2 °F 10.9 °F 10.4 °F 63% 30.48 in 10.0 mi South 9.2 mph - N/A   Clear
10:55 PM 21.2 °F 11.7 °F 10.4 °F 63% 30.48 in 10.0 mi South 8.1 mph - N/A   Clear
11:15 PM 21.2 °F 13.6 °F 10.4 °F 63% 30.47 in 10.0 mi South 5.8 mph - N/A   Clear
11:35 PM 19.4 °F 10.4 °F 10.4 °F 68% 30.47 in 10.0 mi South 6.9 mph - N/A   Clear
11:55 PM 19.4 °F 9.5 °F 10.4 °F 68% 30.46 in 10.0 mi South 8.1 mph - N/A   Clear